This is the latest recevied weather packets stored in our database for station/object IU1FIL-23. If no packets are shown the sender has not sent any weather packets the latest 10 day(s).
| Time | Temp. | Humidity | Pressure | Rain* | Wind** | Luminosity | Snow |
|---|---|---|---|---|---|---|---|
| 1777477023 | 24.44° C | 36% | 1017 hPa | - | - | - | - |
| 1777476419 | 25.56° C | 34% | 1017.1 hPa | - | - | - | - |
| 1777475815 | 25° C | 35% | 1017 hPa | - | - | - | - |
| 1777474597 | 25° C | 35% | 1017.2 hPa | - | - | - | - |
| 1777473993 | 26.11° C | 33% | 1017.2 hPa | - | - | - | - |
| 1777473389 | 27.22° C | 34% | 1017.3 hPa | - | - | - | - |
| 1777469764 | 28.89° C | 33% | 1017.8 hPa | - | - | - | - |
| 1777469160 | 28.33° C | 33% | 1017.9 hPa | - | - | - | - |
| 1777468556 | 28.33° C | 33% | 1017.9 hPa | - | - | - | - |
| 1777467952 | 28.33° C | 32% | 1018 hPa | - | - | - | - |
| 1777465535 | 27.78° C | 32% | 1017.9 hPa | - | - | - | - |
| 1777463119 | 28.33° C | 35% | 1017.9 hPa | - | - | - | - |
| 1777462514 | 28.33° C | 34% | 1017.9 hPa | - | - | - | - |
| 1777461905 | 27.78° C | 35% | 1018 hPa | - | - | - | - |
| 1777461301 | 28.89° C | 35% | 1018.1 hPa | - | - | - | - |
| 1777460697 | 28.33° C | 38% | 1018.2 hPa | - | - | - | - |
| 1777460291 | 28.33° C | 38% | 1018.2 hPa | - | - | - | - |
| 1777459083 | 28.33° C | 39% | 1018.1 hPa | - | - | - | - |
| 1777458479 | 28.33° C | 42% | 1018.3 hPa | - | - | - | - |
| 1777457875 | 27.78° C | 40% | 1018.4 hPa | - | - | - | - |
| 1777457270 | 27.22° C | 44% | 1018.4 hPa | - | - | - | - |
| 1777456666 | 26.11° C | 46% | 1018.5 hPa | - | - | - | - |
| 1777455458 | 25.56° C | 48% | 1018.5 hPa | - | - | - | - |
| 1777454854 | 23.89° C | 52% | 1018.4 hPa | - | - | - | - |
| 1777454250 | 24.44° C | 56% | 1018.4 hPa | - | - | - | - |
* Rain since midnight (hover to see other rain measurements)
** Current wind speed in m/s (hover to see current wind gust speed)